• In Austria
  • List of Countries
  • For 7 days
  • Water Temperature
  • Satellite Maps
  • Weather Map
  • News
  • Weather Widgets
  • user-avatar
    Login

    Hourly Weather Koverdyna Balka

    Today, 25 September, Tuesday

    Time Temperature Precipitation Wind Pressure Humidity
    00:00 +10°C° 0 mm 4 mps 743 mmHg 84%
    01:00 +8°C° 0 mm 4 mps 743 mmHg 84%
    02:00 +8°C° 0 mm 4 mps 743 mmHg 85%
    03:00 +7°C° 0 mm 4 mps 743 mmHg 87%
    04:00 +7°C° 0 mm 4 mps 744 mmHg 89%
    05:00 +6°C° 0 mm 4 mps 744 mmHg 91%
    06:00 +7°C° 0 mm 4 mps 744 mmHg 88%
    07:00 +7°C° 0 mm 5 mps 744 mmHg 85%
    08:00 +8°C° 0 mm 5 mps 745 mmHg 82%
    09:00 +8°C° 0 mm 5 mps 745 mmHg 80%
    10:00 +8°C° 0 mm 5 mps 746 mmHg 78%
    11:00 +9°C° 0 mm 5 mps 746 mmHg 76%
    12:00 +9°C° 0.2 mm 5 mps 747 mmHg 76%
    13:00 +9°C° 0.2 mm 5 mps 747 mmHg 76%
    14:00 +9°C° 0.2 mm 5 mps 747 mmHg 75%
    15:00 +9°C° 0.6 mm 5 mps 748 mmHg 78%
    16:00 +8°C° 0.6 mm 5 mps 748 mmHg 81%
    17:00 +7°C° 0.6 mm 6 mps 749 mmHg 84%
    18:00 +7°C° 0.5 mm 6 mps 749 mmHg 83%
    19:00 +7°C° 0.5 mm 5 mps 750 mmHg 83%
    20:00 +6°C° 0.5 mm 5 mps 751 mmHg 82%
    21:00 +6°C° 0.1 mm 5 mps 751 mmHg 81%
    22:00 +6°C° 0.1 mm 4 mps 751 mmHg 80%
    23:00 +6°C° 0.1 mm 4 mps 752 mmHg 79%

    Tomorrow, 26 September, Wednesday

    Time Temperature Precipitation Wind Pressure Humidity
    00:00 +6°C° 0 mm 4 mps 752 mmHg 80%
    01:00 +7°C° 0 mm 3 mps 753 mmHg 80%
    02:00 +7°C° 0 mm 3 mps 753 mmHg 80%
    03:00 +5°C° 0 mm 3 mps 753 mmHg 82%
    04:00 +5°C° 0 mm 3 mps 754 mmHg 84%
    05:00 +4°C° 0 mm 3 mps 754 mmHg 85%
    06:00 +5°C° 0 mm 3 mps 755 mmHg 82%
    07:00 +5°C° 0 mm 4 mps 755 mmHg 79%
    08:00 +6°C° 0 mm 4 mps 756 mmHg 76%
    09:00 +7°C° 0 mm 4 mps 756 mmHg 71%
    10:00 +8°C° 0 mm 5 mps 757 mmHg 65%
    11:00 +9°C° 0 mm 5 mps 757 mmHg 60%
    12:00 +10°C° 0.2 mm 5 mps 757 mmHg 57%
    13:00 +10°C° 0.2 mm 5 mps 757 mmHg 54%
    14:00 +12°C° 0.2 mm 5 mps 757 mmHg 51%
    15:00 +11°C° 0 mm 4 mps 757 mmHg 53%
    16:00 +10°C° 0 mm 3 mps 757 mmHg 55%
    17:00 +9°C° 0 mm 3 mps 757 mmHg 57%
    18:00 +8°C° 0 mm 3 mps 757 mmHg 59%
    19:00 +7°C° 0 mm 3 mps 758 mmHg 61%
    20:00 +5°C° 0 mm 3 mps 758 mmHg 63%
    21:00 +5°C° 0 mm 3 mps 758 mmHg 63%
    22:00 +5°C° 0 mm 2 mps 758 mmHg 64%
    23:00 +5°C° 0 mm 2 mps 758 mmHg 65%

    Day after tomorrow, 27 September, Thursday

    Time Temperature Precipitation Wind Pressure Humidity
    00:00 +4°C° 0 mm 3 mps 758 mmHg 66%
    01:00 +4°C° 0 mm 3 mps 757 mmHg 66%
    02:00 +3°C° 0 mm 3 mps 757 mmHg 67%
    03:00 +3°C° 0 mm 4 mps 756 mmHg 68%
    04:00 +4°C° 0 mm 4 mps 756 mmHg 70%
    05:00 +4°C° 0 mm 4 mps 755 mmHg 71%
    06:00 +5°C° 0 mm 5 mps 755 mmHg 68%
    07:00 +5°C° 0 mm 6 mps 755 mmHg 64%
    08:00 +8°C° 0 mm 7 mps 754 mmHg 60%
    09:00 +9°C° 0 mm 8 mps 754 mmHg 57%
    10:00 +10°C° 0 mm 8 mps 754 mmHg 53%
    11:00 +12°C° 0 mm 8 mps 753 mmHg 50%
    12:00 +12°C° 0 mm 8 mps 753 mmHg 50%
    13:00 +12°C° 0 mm 8 mps 752 mmHg 51%
    14:00 +13°C° 0 mm 8 mps 752 mmHg 52%
    15:00 +12°C° 0 mm 7 mps 752 mmHg 55%
    16:00 +13°C° 0 mm 6 mps 752 mmHg 58%
    17:00 +13°C° 0 mm 5 mps 751 mmHg 61%
    18:00 +13°C° 0 mm 5 mps 752 mmHg 63%
    19:00 +12°C° 0 mm 5 mps 752 mmHg 65%
    20:00 +12°C° 0 mm 4 mps 752 mmHg 67%
    21:00 +11°C° 0 mm 4 mps 752 mmHg 72%
    22:00 +10°C° 0 mm 3 mps 752 mmHg 78%
    23:00 +10°C° 0 mm 3 mps 752 mmHg 83%

    28 September, Friday

    Time Temperature Precipitation Wind Pressure Humidity
    00:00 +9°C° 0 mm 3 mps 752 mmHg 86%
    01:00 +9°C° 0 mm 3 mps 752 mmHg 90%
    02:00 +9°C° 0 mm 3 mps 752 mmHg 93%
    03:00 +9°C° 0 mm 2 mps 752 mmHg 94%
    04:00 +9°C° 0 mm 2 mps 752 mmHg 94%
    05:00 +9°C° 0 mm 2 mps 752 mmHg 95%
    06:00 +10°C° 0 mm 2 mps 752 mmHg 91%
    07:00 +11°C° 0 mm 3 mps 752 mmHg 88%
    08:00 +12°C° 0 mm 3 mps 752 mmHg 84%
    09:00 +14°C° 0 mm 3 mps 752 mmHg 78%
    10:00 +17°C° 0 mm 4 mps 751 mmHg 72%
    11:00 +17°C° 0 mm 5 mps 751 mmHg 67%
    12:00 +19°C° 0 mm 5 mps 751 mmHg 65%
    13:00 +19°C° 0 mm 5 mps 750 mmHg 63%
    14:00 +20°C° 0 mm 6 mps 750 mmHg 61%
    15:00 +19°C° 0 mm 5 mps 749 mmHg 64%
    16:00 +18°C° 0 mm 4 mps 749 mmHg 67%
    17:00 +18°C° 0 mm 3 mps 748 mmHg 70%
    18:00 +17°C° 0 mm 3 mps 748 mmHg 73%
    19:00 +14°C° 0 mm 3 mps 748 mmHg 77%
    20:00 +13°C° 0 mm 3 mps 748 mmHg 81%
    21:00 +13°C° 0 mm 3 mps 748 mmHg 82%
    22:00 +13°C° 0 mm 3 mps 748 mmHg 83%
    23:00 +13°C° 0 mm 3 mps 747 mmHg 85%

    29 September, Saturday

    Time Temperature Precipitation Wind Pressure Humidity
    00:00 +12°C° 0 mm 3 mps 747 mmHg 86%
    01:00 +12°C° 0 mm 3 mps 747 mmHg 88%
    02:00 +13°C° 0 mm 2 mps 747 mmHg 89%
    03:00 +13°C° 0 mm 2 mps 747 mmHg 90%
    04:00 +13°C° 0 mm 2 mps 747 mmHg 91%
    05:00 +12°C° 0 mm 1 mps 747 mmHg 92%
    06:00 +13°C° 0.1 mm 1 mps 747 mmHg 89%
    07:00 +14°C° 0.1 mm 1 mps 747 mmHg 87%
    08:00 +15°C° 0.1 mm 1 mps 747 mmHg 85%
    09:00 +15°C° 0.1 mm 1 mps 748 mmHg 83%
    10:00 +16°C° 0.1 mm 1 mps 748 mmHg 81%
    11:00 +16°C° 0.1 mm 1 mps 748 mmHg 79%
    12:00 +17°C° 0.2 mm 2 mps 748 mmHg 77%
    13:00 +17°C° 0.2 mm 3 mps 748 mmHg 75%
    14:00 +17°C° 0.2 mm 3 mps 748 mmHg 73%
    15:00 +17°C° 0.1 mm 3 mps 748 mmHg 73%
    16:00 +16°C° 0.1 mm 3 mps 748 mmHg 73%
    17:00 +14°C° 0.1 mm 3 mps 749 mmHg 73%
    18:00 +13°C° 0 mm 4 mps 749 mmHg 72%
    19:00 +12°C° 0 mm 4 mps 750 mmHg 71%
    20:00 +11°C° 0 mm 4 mps 750 mmHg 70%
    21:00 +11°C° 0 mm 4 mps 751 mmHg 70%
    22:00 +10°C° 0 mm 4 mps 751 mmHg 69%
    23:00 +8°C° 0 mm 5 mps 751 mmHg 69%

    30 September, Sunday

    Time Temperature Precipitation Wind Pressure Humidity
    00:00 +7°C° 0 mm 5 mps 752 mmHg 71%
    01:00 +7°C° 0 mm 4 mps 752 mmHg 72%
    02:00 +6°C° 0 mm 4 mps 752 mmHg 74%
    03:00 +6°C° 0 mm 4 mps 752 mmHg 74%
    04:00 +5°C° 0 mm 4 mps 753 mmHg 74%
    05:00 +5°C° 0 mm 4 mps 753 mmHg 74%
    06:00 +6°C° 0 mm 4 mps 754 mmHg 68%
    07:00 +7°C° 0 mm 5 mps 754 mmHg 63%
    08:00 +7°C° 0 mm 5 mps 754 mmHg 57%
    09:00 +9°C° 0 mm 5 mps 754 mmHg 51%
    10:00 +10°C° 0 mm 5 mps 754 mmHg 45%
    11:00 +13°C° 0 mm 5 mps 754 mmHg 39%
    12:00 +13°C° 0 mm 4 mps 754 mmHg 38%
    13:00 +13°C° 0 mm 4 mps 754 mmHg 37%
    14:00 +14°C° 0 mm 4 mps 754 mmHg 35%
    15:00 +13°C° 0 mm 4 mps 754 mmHg 39%
    16:00 +12°C° 0 mm 3 mps 754 mmHg 43%
    17:00 +11°C° 0 mm 3 mps 754 mmHg 47%
    18:00 +10°C° 0 mm 3 mps 754 mmHg 49%
    19:00 +9°C° 0 mm 3 mps 754 mmHg 51%
    20:00 +8°C° 0 mm 3 mps 754 mmHg 52%
    21:00 +7°C° 0 mm 2 mps 754 mmHg 54%
    22:00 +7°C° 0 mm 2 mps 754 mmHg 55%
    23:00 +6°C° 0 mm 2 mps 753 mmHg 57%
    Show more